Location: Sedan
(39.2354°N, 78.5718°W)
Time: 13:59:45
(UTC+00:00)

Envisat - Pass Details

Date: 02 December 2021
Orbit: 764 x 766 km, 98.2° (Epoch: 19 January)

Event Time Altitude Azimuth Distance (km) Brightness Sun altitude
Rises 10:08:14 0° 14° (NNE) 3,240 6.3 -24.2°
Reaches altitude 10° 10:10:33 10° 16° (NNE) 2,310 5.5 -23.7°
Maximum altitude 10:15:39 77° 102° (ESE) 789 3.1 -22.8°
Drops below altitude 10° 10:20:42 10° 189° (S) 2,292 5.5 -21.8°
Sets 10:23:00 0° 190° (S) 3,214 6.2 -21.4°
